IRIDIUM 33 DEB, 34538

Orbit data source: Space-Track

IRIDIUM 33 DEB, 34538 is space debris in LEO originally from a launch on Sun, 14 Sep 1997 UTC launched from the Tyuratam Missile And Space Complex (TTMTR). The debris from Iridium 33, an American commercial communications satellite, has been tracked extensively since its accidental collision with the defunct Russian satellite Cosmos 2251 in 2009. This event, occurring at high speed in low Earth orbit (LEO), generated thousands of pieces of space debris, significantly increasing the risk of further collisions. The Iridium 33 debris cloud has impacted space traffic management and orbital debris mitigation strategies, making it a subject of ongoing study in space situational awareness.

Loading next visibility...
Identifier
34538, 1997-051JF
Orbit
LEO
Country
Flag of USUS
Related business
Manufacturer
Unknown
Mission
Spacecraft
Bus & Motor
Unknown
Mass
Unknown
Launch date (UTC)
1997-09-14 (29 years ago)
Launch vehicle
Unknown
Launch site
Tyuratam Missile And Space Complex (TTMTR)
Object type
Payload
Rocket body
Debris
Shape & HBR
Unknown shape, 0.1 m
Radar Cross Section
Small (<0.1 m²)

Expand to show TLE details & history
Last TLE update: 17 hours ago

TLE from 17 hours ago
0 IRIDIUM 33 DEB
1 34538U 97051JF  26119.95162647  .00002327  00000-0  67827-3 0  9991
2 34538  86.2719 304.9867 0032676 225.9014 288.5014 14.43498476897497
Epoch: 2026-04-29T22:50Z
TLE epoch observation values (Epoch: 2026-04-29T22:50:20.527Z)
Latitude
25.92603°
Longitude
-77.30956°
Altitude
742.928 km
Speed
7.489 km/s
True Right ascension
08h 12m 43s
True Declination
25° 47' 27"
Sunlit
Object was in daylight at epoch
Visualization orbit readout
Latitude
Unknown
Longitude
Unknown
Altitude
Unknown
Speed
Unknown
Apparent Right ascension
Unknown
Apparent Declination
Unknown
Sunlit
N/A
Visualization observer readout
Local Sidereal Time
22:56:13
Azimuth
Unknown
Elevation
Unknown
Doppler factor
Unknown
Orbital elements
Apogee altitude
767.189 km
Perigee altitude
720.645 km
Semi-major axis
7,122.054 km
Eccentricity
0.00327
Inclination
86.2719°
RAAN
304.9867°
Arg. of periapsis
225.9014°
True anomaly
288.14585°
Mean anomaly
288.5014°
Eccentric anomaly
288.32367°
Mean motion
3.61106 °/min
Orbital period
99.69 mins
BSTAR
0.00067827
Loading maneuver chart data...
Computing Atmospheric mass density...

Documentation

Showing up to 5 results
|